BREEZE-M DEB, 38647

Orbit data source: Space-Track

BREEZE-M DEB, 38647 is space debris in HEO originally from a launch on Fri, 14 Mar 2008 UTC launched from the Tyuratam Missile And Space Complex (TTMTR). Debris objects in space refer to the collection of defunct objects orbiting the Earth. Examples of debris include non-operational satellites, rocket bodies, and fragments generated from explosions, collisions, or faulty payload assembly.

Loading next visibility...
Identifier
38647, 2008-011CW
Orbit
HEO
Country
Flag of CISCIS
Related business
Manufacturer
Unknown
Mission
Spacecraft
Bus & Motor
Unknown
Mass
Unknown
Launch date (UTC)
2008-03-14 (18 years ago)
Launch vehicle
Unknown
Launch site
Tyuratam Missile And Space Complex (TTMTR)
Object type
Payload
Rocket body
Debris
Shape & HBR
Unknown shape, 0.4 m
Radar Cross Section
Medium (>0.1 m² and <1 m²)

Expand to show TLE details & history
Last TLE update: 3 days ago

TLE from 3 days ago
0 BREEZE-M DEB
1 38647U 08011CW  26171.12342817 -.00000045  00000-0  00000-0 0  9993
2 38647  48.9093  87.8511 6349305 155.0688 258.1474  3.05362317174818
Epoch: 2026-06-20T02:57Z
TLE epoch observation values (Epoch: 2026-06-20T02:57:44.193Z)
Latitude
-0°
Longitude
135.06096°
Altitude
21,857.706 km
Speed
2.894 km/s
True Right ascension
05h 51m 21s
True Declination
0° 00' 00"
Sunlit
Object was in daylight at epoch
Visualization orbit readout
Latitude
Unknown
Longitude
Unknown
Altitude
Unknown
Speed
Unknown
Apparent Right ascension
Unknown
Apparent Declination
Unknown
Sunlit
N/A
Visualization observer readout
Local Sidereal Time
05:03:38
Azimuth
Unknown
Elevation
Unknown
Doppler factor
Unknown
Orbital elements
Apogee altitude
26,434.39 km
Perigee altitude
948.69 km
Semi-major axis
20,069.677 km
Eccentricity
0.63493
Inclination
48.9093°
RAAN
87.8511°
Arg. of periapsis
155.0688°
True anomaly
204.96203°
Mean anomaly
258.1474°
Eccentric anomaly
230.19868°
Mean motion
0.76337 °/min
Orbital period
471.6 mins
BSTAR
0
Loading maneuver chart data...
Computing Atmospheric mass density...
Loading historical data...
Loading historical data...
Loading historical data...
Loading historical data...
Loading historical data...
Loading historical data...
Loading historical data...

Documentation

Showing up to 5 results
|